This demonstration page uses our WeatherBlox Daily Observations layout. Learn more.

Left ArrowRight Arrow

38.20091, -84.87328

Hourly Observations for January 15, 2015

Temp ( °F °C ) Dew Point ( °F °C ) Humidity (%) Winds ( mph kmh ) Pressure ( in mb ) Visibility ( mi km ) Precip ( " mm )
12:53 am 00:53 Cloudy 26 -3.3 20 -6.7 78 78 Calm 30.27 1025 10 16 0.00 0.00
1:53 am 01:53 Cloudy 26 -3.3 20 -6.7 78 78 SE 3 6 30.25 1024 9 14 0.00 0.00
2:53 am 02:53 Cloudy 26 -3.3 21 -6.1 81 81 Calm 30.24 1024 9 14 0.00 0.00
3:53 am 03:53 Cloudy 27 -2.8 21 -6.1 78 78 Calm 30.23 1024 9 14 0.00 0.00
4:53 am 04:53 Cloudy 27 -2.8 22 -5.6 81 81 SW 3 6 30.22 1023 8 13 0.00 0.00
5:53 am 05:53 Cloudy 27 -2.8 22 -5.6 81 81 SW 5 7 30.21 1023 9 14 0.00 0.00
6:53 am 06:53 Cloudy 27 -2.8 22 -5.6 81 81 SW 5 7 30.21 1023 9 14 0.00 0.00
7:53 am 07:53 Cloudy 28 -2.2 21 -6.1 75 75 WSW 6 9 30.21 1023 10 16 0.00 0.00
8:53 am 08:53 Cloudy 28 -2.2 20 -6.7 72 72 SW 8 13 30.21 1023 9 14 0.00 0.00
9:53 am 09:53 Cloudy 29 -1.7 21 -6.1 72 72 SW 10 17 30.22 1023 9 14 0.00 0.00
10:53 am 10:53 Cloudy 30 -1.1 20 -6.7 66 66 SW 7 11 30.24 1024 10 16 0.00 0.00
11:53 am 11:53 Cloudy 31 -0.6 20 -6.7 64 64 SW 7 11 30.22 1024 10 16 0.00 0.00
12:53 pm 12:53 Cloudy 32 0 19 -7.2 59 59 SW 9 15 30.19 1022 10 16 0.00 0.00
1:53 pm 13:53 Sunny 34 1.1 21 -6.1 59 59 SW 10 17 30.16 1021 10 16 0.00 0.00
2:50 pm 14:50 Mostly Cloudy 36 2 19 -7 52 52 WSW 6 9 30.15 1021 10 16 0.00 0.00
2:53 pm 14:53 Mostly Cloudy 36 2.2 19 -7.2 50 50 WSW 6 9 30.15 1021 10 16 0.00 0.00
3:02 pm 15:02 Partly Cloudy 34 1.1 18 -7.8 52 52 VRB 5 7 30.18 1022 10 16 0.00 0.00
3:53 pm 15:53 Mostly Sunny 36 2.2 19 -7.2 50 50 WSW 9 15 30.14 1021 10 16 0.00 0.00
4:53 pm 16:53 Sunny 33 0.6 23 -5 66 66 SW 10 17 30.14 1021 10 16 0.00 0.00
5:53 pm 17:53 Clear 29 -1.7 23 -5 78 78 SW 7 11 30.15 1021 10 16 0.00 0.00
6:53 pm 18:53 Clear 28 -2.2 22 -5.6 78 78 SW 8 13 30.16 1022 10 16 0.00 0.00
7:53 pm 19:53 Clear 27 -2.8 23 -5 85 85 SW 8 13 30.17 1022 10 16 0.00 0.00
8:53 pm 20:53 Clear 27 -2.8 23 -5 85 85 SW 10 17 30.17 1022 9 14 0.00 0.00
9:53 pm 21:53 Clear 26 -3.3 23 -5 88 88 SW 9 15 30.17 1022 7 11 0.00 0.00
10:53 pm 22:53 Clear with Mist and Fog 25 -3.9 22 -5.6 88 88 SW 8 13 30.18 1022 6 10 0.00 0.00
11:53 pm 23:53 Clear with Mist and Fog 25 -3.9 22 -5.6 88 88 SW 8 13 30.19 1022 6 10 0.00 0.00

Powered by AerisWeather